THORAD DELTA 1 DEB, 9986

Orbit data source: Space-Track

THORAD DELTA 1 DEB, 9986 is space debris in LEO originally from a launch on Fri, 15 Nov 1974 UTC launched from the Air Force Western Test Range (AFWTR). Debris objects in space refer to the collection of defunct objects orbiting the Earth. Examples of debris include non-operational satellites, rocket bodies, and fragments generated from explosions, collisions, or faulty payload assembly.

Loading next visibility...
Identifier
9986, 1974-089ED
Orbit
LEO
Country
Flag of USUS
Related business
Manufacturer
Unknown
Mission
Spacecraft
Bus & Motor
Unknown
Mass
Unknown
Launch date (UTC)
1974-11-15 (51 years ago)
Launch vehicle
Unknown
Launch site
Air Force Western Test Range (AFWTR)
Object type
Payload
Rocket body
Debris
Shape & HBR
Unknown shape, 1.1 m
Radar Cross Section
Small (<0.1 m²)

Expand to show TLE details & history
Last TLE update: 19 hours ago

TLE from 19 hours ago
0 THORAD DELTA 1 DEB
1 09986U 74089ED  25287.02376267  .00008702  00000-0  90832-2 0  9998
2 09986 103.2469 135.9836 0387520 293.8602  62.2364 13.47282523398515
Epoch: 2025-10-14T00:34Z
TLE epoch observation values (Epoch: 2025-10-14T00:34:13.094Z)
Latitude
0.00001°
Longitude
104.6109°
Altitude
959.234 km
Speed
7.434 km/s
True Right ascension
09h 03m 56s
True Declination
0° 00' 00"
Sunlit
Object was in daylight at epoch
Visualization orbit readout
Latitude
Unknown
Longitude
Unknown
Altitude
Unknown
Speed
Unknown
Apparent Right ascension
Unknown
Apparent Declination
Unknown
Sunlit
N/A
Visualization observer readout
Local Sidereal Time
13:50:14
Azimuth
Unknown
Elevation
Unknown
Doppler factor
Unknown
Orbital elements
Apogee altitude
1,368.796 km
Perigee altitude
790.777 km
Semi-major axis
7,457.923 km
Eccentricity
0.03875
Inclination
103.2469°
RAAN
135.9836°
Arg. of periapsis
293.8602°
True anomaly
66.25316°
Mean anomaly
62.2364°
Eccentric anomaly
64.23601°
Mean motion
3.36989 °/min
Orbital period
106.83 mins
BSTAR
0.0090832
Loading maneuver chart data...
Computing Atmospheric mass density...

Documentation

Showing up to 5 results
|